Location: Unspecified
(42.9300°N, 71.1866°W)
Time: 16:20:17
(UTC-04:00)

Hubble Space Telescope - Visible Passes

Search period start: 01 September 2015 00:00
Search period end: 11 September 2015 00:00
Orbit: 541 x 545 km, 28.5° (Epoch: 01 September)

Date Brightness Start Highest point End Pass type
(mag) Time Alt. Az. Time Alt. Az. Time Alt. Az.
06 Sep 3.2 05:39:17 10° S 05:39:59 10° S 05:40:42 10° SSE visible
07 Sep 3.2 05:29:52 10° SSW 05:30:52 11° S 05:31:53 10° SSE visible
08 Sep 3.1 05:20:42 10° SSW 05:21:46 11° S 05:22:50 10° SSE visible
09 Sep 3.1 05:11:43 10° SSW 05:12:40 11° S 05:13:34 10° S visible
10 Sep 3.1 05:03:08 10° SSW 05:03:33 10° S 05:03:56 10° S visible
